FW5156 Weather Reports


Display with metric or nautical units.
time (UTC)temp
F
wind
direction
speed
MPH
gust
MPH
rain 1hr
in
rain 24hr
in
rain mn
in
humidity
%
barometer
mb
20260505205017 56 0.0 0.0 0.00 0.59 0.59 95 1007.5
20260505204037 57 0.0 0.0 0.00 0.59 0.59 95 1007.5
20260505203017 57 0.0 0.0 0.00 0.59 0.59 95 1007.6
20260505202017 58 0.0 0.0 0.00 0.59 0.59 95 1007.7
20260505201018 58 0.0 0.0 0.00 0.59 0.59 95 1007.6
20260505200017 58 0.0 0.0 0.00 0.59 0.59 95 1007.6
20260505195017 58 0.0 0.0 0.01 0.59 0.59 95 1007.6
20260505194017 58 0.0 0.0 0.01 0.59 0.59 96 1007.6
20260505193018 58 0.0 0.0 0.02 0.59 0.59 96 1007.7
20260505192017 58 0.0 3.0 0.02 0.59 0.59 95 1007.8
20260505191017 58 0.0 0.0 0.02 0.59 0.59 95 1007.8
20260505190018 58 0.0 0.0 0.02 0.59 0.59 95 1007.9
20260505185017 58 0.0 0.0 0.02 0.58 0.58 95 1008.0
20260505184017 58 0.0 0.0 0.04 0.58 0.58 95 1008.0
20260505183017 58 0.0 0.0 0.04 0.57 0.57 95 1008.0
20260505182017 58 0.0 0.0 0.06 0.58 0.57 95 1007.9
20260505181017 58 0.0 0.0 0.08 0.59 0.57 95 1008.1
20260505180017 58 0.0 0.0 0.09 0.60 0.57 95 1007.8
20260505175018 58 0.0 0.0 0.09 0.60 0.56 94 1008.1
20260505174017 58 0.0 0.0 0.08 0.58 0.54 94 1008.6
20260505173017 58 0.0 0.0 0.07 0.57 0.53 94 1008.8
20260505172017 58 0.0 0.0 0.05 0.55 0.51 93 1009.0
20260505170017 58 0.0 0.0 0.02 0.52 0.48 93 1009.2
20260505165017 58 0.0 0.0 0.01 0.51 0.47 92 1008.8
20260505164018 58 0.0 0.0 0.00 0.50 0.46 91 1009.5
20260505163037 59 0.0 0.0 0.00 0.50 0.46 91 1009.5
20260505162017 59 0.0 0.0 0.00 0.50 0.46 91 1009.4
20260505161017 59 0.0 0.0 0.00 0.50 0.46 91 1009.6
20260505153038 60 0.0 0.0 0.00 0.50 0.46 92 1009.1
20260505152017 59 0.0 0.0 0.00 0.50 0.46 92 1008.9
20260505151037 59 0.0 0.0 0.00 0.50 0.46 93 1009.0
20260505125017 56 0.0 0.0 0.00 0.50 0.46 96 1008.4
20260505124017 56 225 1.0 5.0 0.00 0.50 0.46 96 1008.3
20260505123037 56 0.0 8.0 0.00 0.50 0.46 96 1008.1
20260505122037 56 0.0 0.0 0.00 0.50 0.46 96 1008.0
20260505121038 55 0.0 0.0 0.00 0.50 0.46 96 1007.9
20260505120017 55 0.0 0.0 0.00 0.50 0.46 96 1007.9
20260505115017 55 0.0 0.0 0.00 0.50 0.46 96 1007.8
20260505114037 55 0.0 0.0 0.00 0.50 0.46 96 1007.8
20260505113017 55 0.0 0.0 0.00 0.50 0.46 96 1007.8
20260505112017 55 0.0 0.0 0.01 0.50 0.46 96 1007.4
20260505111017 55 0.0 0.0 0.01 0.50 0.46 96 1007.4
20260505102037 55 0.0 2.0 0.00 0.49 0.45 95 1007.5
20260505101017 55 248 1.0 4.0 0.00 0.49 0.45 95 1007.9
20260505100058 55 0.0 3.0 0.01 0.49 0.45 95 1007.5
20260505095018 55 0.0 0.0 0.04 0.49 0.45 95 1006.9
20260505094017 55 0.0 0.0 0.07 0.49 0.45 95 1007.0
20260505093017 55 0.0 5.0 0.10 0.49 0.45 95 1007.1
20260505092017 55 0.0 4.0 0.14 0.49 0.45 95 1006.9
20260505091017 55 135 1.0 4.0 0.16 0.49 0.45 95 1006.7
20260505090017 55 0.0 4.0 0.18 0.48 0.44 95 1007.5
20260505085017 56 0.0 0.0 0.16 0.45 0.41 95 1008.3
20260505084038 56 0.0 4.0 0.14 0.42 0.38 95 1008.6
20260505083017 56 0.0 0.0 0.12 0.39 0.35 94 1008.7
20260505082017 56 0.0 0.0 0.08 0.35 0.32 94 1008.2
20260505081017 56 0.0 0.0 0.09 0.33 0.29 94 1008.3
20260505080017 56 0.0 0.0 0.09 0.30 0.26 94 1008.4
20260505075017 56 0.0 3.0 0.12 0.29 0.25 94 1008.6
20260505074037 56 0.0 0.0 0.14 0.28 0.24 94 1008.8
20260505073018 56 0.0 0.0 0.14 0.27 0.23 94 1008.7
20260505072017 56 0.0 0.0 0.14 0.27 0.23 93 1008.1
20260505071017 56 0.0 1.0 0.12 0.24 0.20 93 1008.2
20260505070017 56 0.0 3.0 0.10 0.21 0.17 92 1007.9
20260505065017 57 0.0 3.0 0.10 0.17 0.13 92 1007.0
20260505064017 57 0.0 3.0 0.09 0.14 0.10 92 1006.8
20260505063017 58 0.0 0.0 0.09 0.13 0.09 91 1005.9
20260505062017 58 0.0 4.0 0.09 0.13 0.09 90 1005.7
20260505061017 58 0.0 1.0 0.08 0.12 0.08 88 1006.2
20260505060017 59 0.0 0.0 0.07 0.11 0.07 85 1006.6
20260505055017 61 0.0 0.0 0.03 0.07 0.03 81 1007.1
20260505054017 63 0.0 0.0 0.01 0.05 0.01 75 1007.2
20260505053017 65 0.0 2.0 0.00 0.04 0.00 66 1006.8
20260505052037 66 0.0 4.0 0.00 0.04 0.00 64 1006.2
20260505051037 67 0.0 6.0 0.00 0.04 0.00 58 1006.2
20260505041017 68 248 2.0 9.0 0.00 0.04 0.00 54 1004.9
20260505040017 68 225 1.0 10.0 0.00 0.04 0.00 54 1004.9
20260505035037 68 225 1.0 7.0 0.00 0.04 0.04 53 1005.1
20260505034017 68 203 2.0 7.0 0.00 0.04 0.04 53 1005.0
20260505033017 68 0.0 5.0 0.00 0.04 0.04 53 1005.0
20260505032015 68 203 2.0 11.0 0.00 0.04 0.04 52 1005.0
20260505031017 68 0.0 3.0 0.00 0.04 0.04 53 1005.3
20260505030017 68 248 3.0 10.0 0.00 0.04 0.04 53 1005.3
20260505025037 68 225 2.0 11.0 0.00 0.04 0.04 53 1005.3
20260505024017 68 225 2.0 8.0 0.00 0.04 0.04 53 1005.4
20260505023017 68 248 1.0 5.0 0.00 0.04 0.04 53 1005.4
20260505021037 69 248 3.0 10.0 0.00 0.04 0.04 52 1005.4
20260505020037 69 225 2.0 7.0 0.00 0.04 0.04 52 1005.1
20260505015017 69 248 2.0 6.0 0.00 0.04 0.04 52 1005.0
20260505014037 69 225 3.0 11.0 0.00 0.04 0.04 52 1004.9
20260505013017 69 248 2.0 9.0 0.00 0.04 0.04 52 1004.7
20260505012017 69 203 1.0 8.0 0.00 0.04 0.04 53 1004.5
20260505011017 70 225 2.0 12.0 0.00 0.04 0.04 52 1004.3
20260505010017 70 225 4.0 9.0 0.00 0.04 0.04 51 1004.1
20260505005017 70 225 3.0 12.0 0.00 0.04 0.04 52 1003.8
20260505004017 70 248 2.0 6.0 0.00 0.04 0.04 52 1003.7
20260505003017 71 225 3.0 9.0 0.00 0.04 0.04 51 1003.7
20260505002017 71 248 2.0 8.0 0.00 0.04 0.04 51 1003.8
20260505001037 72 225 3.0 15.0 0.00 0.04 0.04 50 1004.0
20260505000017 72 248 3.0 12.0 0.00 0.04 0.04 50 1004.3
20260504235017 72 225 2.0 10.0 0.00 0.04 0.04 50 1004.3
20260504234017 73 225 2.0 10.0 0.00 0.04 0.04 51 1004.3
20260504233017 73 203 4.0 12.0 0.00 0.04 0.04 50 1004.5
20260504232017 73 225 3.0 12.0 0.00 0.04 0.04 51 1004.6
20260504231017 73 225 5.0 11.0 0.00 0.04 0.04 49 1004.8
20260504230017 73 225 4.0 9.0 0.00 0.04 0.04 48 1004.8
20260504225017 74 203 3.0 14.0 0.00 0.04 0.04 48 1005.0
20260504224017 74 225 5.0 16.0 0.00 0.04 0.04 46 1005.2
20260504223017 74 225 5.0 22.0 0.00 0.04 0.04 47 1005.5
20260504222017 74 203 4.0 12.0 0.00 0.04 0.04 45 1005.6
20260504221017 75 225 5.0 15.0 0.00 0.04 0.04 45 1005.6
20260504220017 75 203 4.0 10.0 0.00 0.04 0.04 45 1005.5
20260504215017 75 225 6.0 14.0 0.00 0.04 0.04 45 1005.6
20260504214017 74 225 3.0 8.0 0.00 0.04 0.04 49 1005.5
20260504213017 73 225 5.0 17.0 0.00 0.04 0.04 50 1005.6
20260504212017 72 225 5.0 14.0 0.00 0.04 0.04 53 1005.8
20260504211017 71 293 3.0 11.0 0.00 0.04 0.04 65 1006.0
20260504210037 71 0.0 5.0 0.00 0.04 0.04 67 1006.3